Regional Weather Roundup
Issued by NWS

Home | Current Version | Previous Version | Graphics & Text | Print | Product List | Glossary Off
Versions: 1 2 3 4 5 6 7 8 9 10 11 12 13 14 15 16 17 18 19 20 21 22 23 24 25 26 27 28 29 30 31 32 33 34 35 36 37 38 39 40 41 42 43 44 45 46 47 48 49 50

000
ASUS43 KTOP 271159
RWRKS

WEATHER ROUNDUP FOR KANSAS
NATIONAL WEATHER SERVICE GOODLAND KS
600 AM CST FRI FEB 27 2015

NOTE:  "FAIR" INDICATES FEW OR NO CLOUDS BELOW 12,000 FEET WITH NO
SIGNIFICANT WEATHER AND/OR OBSTRUCTIONS TO VISIBILITY.

KSZ001>006-013>018-027>032-041>047-271300-
NORTHWEST KANSAS

CITY           SKY/WX    TMP DP  RH WIND       PRES   REMARKS
GOODLAND       LGT SNOW  10   7  87 SE13      30.27S FOG     WCI  -5
6HR MIN TEMP:  10; 6HR MAX TEMP:  14; 6HR PCP:  0.03;

HAYS           MOCLDY     9  -8  47 E9        30.48S
HILL CITY      CLOUDY     8  -1  66 E6        30.47F
6HR MIN TEMP:   8; 6HR MAX TEMP:  10;

RUSSELL        MOCLDY     8   2  76 E5        30.50R
6HR MIN TEMP:   6; 6HR MAX TEMP:   9;

$$

KSZ061>065-074>080-084>089-271300-
SOUTHWEST KANSAS

CITY           SKY/WX    TMP DP  RH WIND       PRES   REMARKS
DODGE CITY     LGT SNOW  12   6  77 E9        30.42R
6HR MIN TEMP:  12; 6HR MAX TEMP:  16; 6HR PCP:  0.02;

ELKHART          N/A     11   3  70 SE14        N/A  WCI  -5
GARDEN CITY    LGT SNOW  11   8  88 SE12      30.36S FOG     WCI  -3
6HR MIN TEMP:  11; 6HR MAX TEMP:  16; 6HR PCP:  0.01;

GREAT BEND     CLOUDY    10  -2  56 E8        30.50S
LIBERAL        CLOUDY    12   5  73 E10       30.37R WCI  -1
$$

KSZ066>073-081>083-090>101-271300-
SOUTHEAST KANSAS

CITY           SKY/WX    TMP DP  RH WIND       PRES   REMARKS
CHANUTE        CLEAR      7  -1  70 NE7       30.59R
6HR MIN TEMP:   7; 6HR MAX TEMP:  13;

COFFEYVILLE    MOCLDY     9   0  67 NE9       30.59S
6HR MIN TEMP:   9; 6HR MAX TEMP:  16;

HUTCHINSON     CLOUDY    10   0  63 E7        30.55R
6HR MIN TEMP:  10; 6HR MAX TEMP:  11;

MEDICINE LODGE   N/A     13   2  61 E8        30.51S
NEWTON         MOCLDY     9  -4  56 NE6       30.53R
PARSONS        CLEAR      8  -1  66 NE6       30.59S
6HR MIN TEMP:   8; 6HR MAX TEMP:  15;

WICHITA INTL   CLOUDY    11  -1  58 E8        30.56R
6HR MIN TEMP:  11; 6HR MAX TEMP:  14;

WICHITA JABRA  CLOUDY     9   0  67 NE6       30.55R
6HR MIN TEMP:   9; 6HR MAX TEMP:  11;

WINFIELD       CLOUDY    11   1  64 NE8       30.59R
6HR MIN TEMP:  11; 6HR MAX TEMP:  15;

$$

KSZ007>012-019>026-033>040-048>060-102>105-271300-
NORTHEAST KANSAS

CITY           SKY/WX    TMP DP  RH WIND       PRES   REMARKS
CONCORDIA      PTCLDY     4   0  83 CALM      30.56R
6HR MIN TEMP:   3; 6HR MAX TEMP:   6;

EMPORIA        PTCLDY     5   1  83 CALM      30.57S
6HR MIN TEMP:   5; 6HR MAX TEMP:   8;

LAWRENCE       PTCLDY     2  -3  80 W3        30.63R
6HR MIN TEMP:  -1; 6HR MAX TEMP:   6;

MANHATTAN      PTCLDY     7   3  84 CALM      30.60R
6HR MIN TEMP:   5; 6HR MAX TEMP:   7;

OLATHE IND     CLEAR      3  -3  76 NW3       30.61R
6HR MIN TEMP:   1; 6HR MAX TEMP:   6;

OLATHE EXE     CLEAR      4  -3  73 N3        30.58R
6HR MIN TEMP:   4; 6HR MAX TEMP:   8;

SALINA         PTCLDY     9   0  67 CALM      30.58S
6HR MIN TEMP:   8; 6HR MAX TEMP:  11;

TOPEKA BILLARD CLEAR      5  -2  72 CALM      30.63R
6HR MIN TEMP:   3; 6HR MAX TEMP:   7;

TOPEKA FORBES  PTCLDY     6  -1  73 CALM      30.59R
6HR MIN TEMP:   5; 6HR MAX TEMP:   9;

$$


USA.gov is the U.S. government's official web portal to all federal, state and local government web resources and services.